IZ2OSD Weather Reports


time (UTC)temp
C
wind
direction
speed
KPH
gust
KPH
rain 1hr
cm
rain 24hr
cm
rain mn
cm
humidity
%
barometer
mb
20260508113745 20 135 4.8 12.9 0.00 0.00 0.00 62 1014.5
20260508112741 19 112 3.2 4.8 0.00 0.00 0.00 62 1014.8
20260508111739 20 112 0.0 1.6 0.00 0.00 0.00 62 1014.6
20260508110735 19 315 3.2 6.4 0.00 0.00 0.00 62 1014.7
20260508105751 20 202 1.6 3.2 0.00 0.00 0.00 60 1014.7
20260508104729 19 292 3.2 6.4 0.00 0.00 0.00 62 1014.8
20260508103728 20 45 1.6 9.7 0.00 0.00 0.00 60 1014.7
20260508102721 18 112 3.2 4.8 0.00 0.00 0.00 64 1015.1
20260508101718 18 112 3.2 6.4 0.00 0.00 0.00 64 1015.1
20260508100717 19 67 4.8 9.7 0.00 0.00 0.00 64 1015.1
20260508095711 18 90 1.6 9.7 0.00 0.00 0.00 65 1015.1
20260508094706 18 90 4.8 12.9 0.00 0.00 0.00 65 1014.9
20260508093703 17 135 4.8 9.7 0.00 0.00 0.00 68 1015.1
20260508092659 17 45 1.6 9.7 0.00 0.00 0.00 66 1015.2
20260508091657 18 292 1.6 3.2 0.00 0.00 0.00 66 1014.8
20260508090653 18 67 4.8 9.7 0.00 0.00 0.00 66 1015.1
20260508085649 17 112 1.6 4.8 0.00 0.00 0.00 67 1015.0
20260508084646 17 292 3.2 9.7 0.00 0.00 0.00 67 1015.2
20260508083643 17 292 3.2 4.8 0.00 0.00 0.00 66 1015.1
20260508082640 17 112 1.6 6.4 0.00 0.00 0.00 67 1015.1
20260508081635 17 112 0.0 1.6 0.00 0.00 0.00 68 1015.0
20260508080631 16 315 1.6 3.2 0.00 0.00 0.00 69 1015.0
20260508075628 17 112 0.0 1.6 0.00 0.00 0.00 65 1015.0
20260508074625 20 270 0.0 1.6 0.00 0.00 0.00 61 1014.8
20260508073620 19 292 0.0 1.6 0.00 0.00 0.00 63 1014.8
20260508072658 19 292 0.0 3.2 0.00 0.00 0.00 64 1014.8
20260508071654 19 0.0 1.6 0.00 0.00 0.00 63 1014.8
20260508070612 20 0.0 0.0 0.00 0.00 0.00 62 1014.7
20260508065608 19 292 0.0 1.6 0.00 0.00 0.00 65 1014.9
20260508064605 18 292 1.6 1.6 0.00 0.00 0.00 65 1014.5
20260508063601 18 292 0.0 1.6 0.00 0.00 0.00 69 1014.4
20260508062620 17 292 0.0 3.2 0.00 0.00 0.00 68 1014.2
20260508061557 16 292 1.6 3.2 0.00 0.00 0.00 71 1014.0
20260508060553 16 292 0.0 3.2 0.00 0.00 0.00 73 1013.9
20260508055609 15 292 1.6 3.2 0.00 0.00 0.00 74 1014.1
20260508054546 15 292 0.0 1.6 0.00 0.00 0.00 76 1013.8
20260508053542 13 292 1.6 3.2 0.00 0.00 0.00 78 1013.8
20260508052538 13 292 1.6 3.2 0.00 0.00 0.00 79 1013.8
20260508051553 12 315 3.2 4.8 0.00 0.00 0.00 81 1013.5
20260508050529 12 315 3.2 4.8 0.00 0.00 0.00 82 1013.4
20260508045526 12 315 1.6 3.2 0.00 0.00 0.00 83 1013.3
20260508044605 12 315 1.6 3.2 0.00 0.00 0.00 85 1013.4
20260508043518 11 292 1.6 3.2 0.00 0.00 0.00 86 1013.6
20260508042515 11 315 0.0 1.6 0.00 0.00 0.00 86 1013.2
20260508041511 11 0.0 0.0 0.00 0.00 0.00 86 1013.4
20260508040510 11 0.0 1.6 0.00 0.00 0.00 86 1013.4
20260508035527 11 0.0 1.6 0.00 0.00 0.00 86 1013.3
20260508034504 11 315 3.2 4.8 0.00 0.00 0.00 86 1013.0
20260508033502 11 292 1.6 3.2 0.00 0.00 0.00 86 1013.2
20260508032459 11 292 0.0 1.6 0.00 0.00 0.00 85 1013.0
20260508031456 12 292 1.6 3.2 0.00 0.03 0.00 85 1013.3
20260508030513 12 292 0.0 1.6 0.00 0.03 0.00 84 1013.2
20260508025449 12 292 1.6 3.2 0.00 0.03 0.00 85 1013.0
20260508024445 11 315 1.6 3.2 0.00 0.03 0.00 85 1012.9
20260508023504 11 315 4.8 4.8 0.00 0.03 0.00 85 1013.0
20260508022438 12 315 3.2 6.4 0.00 0.03 0.00 85 1013.2
20260508021435 12 315 1.6 4.8 0.00 0.03 0.00 84 1013.2
20260508020451 12 292 3.2 4.8 0.00 0.03 0.00 84 1013.2
20260508015428 12 292 1.6 3.2 0.00 0.03 0.00 84 1013.3
20260508014444 12 292 3.2 6.4 0.00 0.03 0.00 83 1013.0
20260508013421 12 270 1.6 3.2 0.00 0.03 0.00 83 1012.9
20260508012417 11 157 6.4 16.1 0.00 0.03 0.00 84 1013.2
20260508011413 11 315 1.6 3.2 0.00 0.03 0.00 85 1012.5
20260508010430 11 315 1.6 3.2 0.00 0.03 0.00 85 1012.8
20260508005406 11 292 1.6 3.2 0.00 0.03 0.00 85 1012.9
20260508004403 12 0.0 0.0 0.00 0.05 0.00 85 1012.8
20260508003400 11 0.0 0.0 0.00 0.05 0.00 85 1013.0
20260508002356 11 0.0 0.0 0.00 0.05 0.00 85 1012.8
20260508001412 12 0.0 0.0 0.00 0.05 0.00 84 1013.2
20260508000350 12 0.0 0.0 0.00 0.05 0.00 84 1012.9
20260507235345 12 0.0 0.0 0.00 0.05 0.00 84 1013.0
20260507234343 12 0.0 0.0 0.00 0.05 0.00 84 1012.9
20260507233338 12 0.0 0.0 0.00 0.05 0.00 83 1012.9
20260507232334 12 0.0 0.0 0.00 0.05 0.00 82 1013.3
20260507231333 12 0.0 0.0 0.00 0.05 0.00 81 1012.9
20260507230326 12 292 0.0 1.6 0.00 0.05 0.00 81 1012.9
20260507225323 13 0.0 0.0 0.00 0.05 0.00 82 1012.9
20260507224319 13 292 0.0 1.6 0.00 0.05 0.00 81 1013.2
20260507223316 13 292 0.0 3.2 0.00 0.05 0.00 81 1013.2
20260507222312 13 292 0.0 3.2 0.00 0.05 0.00 81 1012.9
20260507221308 13 292 1.6 3.2 0.00 0.05 0.00 81 1012.9
20260507220304 13 0.0 0.0 0.00 0.05 0.00 82 1013.0
20260507215256 13 0.0 0.0 0.00 0.05 0.05 83 1013.2
20260507214332 13 0.0 0.0 0.00 0.05 0.05 81 1012.7
20260507213249 14 0.0 0.0 0.00 0.05 0.05 79 1012.6
20260507212247 15 0.0 0.0 0.00 0.05 0.05 78 1012.6
20260507211242 15 0.0 0.0 0.00 0.05 0.05 77 1012.7
20260507210238 15 0.0 0.0 0.00 0.05 0.05 76 1012.8
20260507205315 15 0.0 0.0 0.00 0.05 0.05 75 1012.6
20260507204312 16 0.0 0.0 0.00 0.05 0.05 74 1012.4
20260507203227 16 315 0.0 3.2 0.00 0.05 0.05 73 1012.5
20260507202223 15 0.0 0.0 0.00 0.05 0.05 74 1012.4
20260507201217 15 0.0 0.0 0.00 0.05 0.05 73 1012.0
20260507200213 16 0.0 0.0 0.00 0.05 0.05 73 1012.1
20260507195210 16 0.0 0.0 0.00 0.05 0.05 72 1011.9
20260507194206 16 0.0 0.0 0.00 0.05 0.05 70 1011.9
20260507193157 16 0.0 0.0 0.00 0.05 0.05 68 1011.6
20260507192213 17 0.0 0.0 0.00 0.05 0.05 65 1011.5
20260507191149 17 0.0 0.0 0.00 0.05 0.05 60 1011.3
20260507190147 17 0.0 0.0 0.00 0.05 0.05 60 1011.1
20260507185143 18 0.0 0.0 0.00 0.05 0.05 59 1011.1
20260507184141 18 0.0 0.0 0.00 0.05 0.05 56 1011.0
20260507183135 18 0.0 3.2 0.00 0.05 0.05 54 1011.2
20260507182132 18 0.0 0.0 0.00 0.36 0.05 53 1011.0
20260507181129 19 0.0 1.6 0.00 0.36 0.05 53 1010.8
20260507180126 19 0.0 0.0 0.00 0.36 0.05 51 1010.9
20260507175122 20 315 1.6 3.2 0.00 0.36 0.05 50 1010.8
20260507174119 20 247 0.0 1.6 0.00 0.36 0.05 50 1010.7
20260507173115 20 292 0.0 1.6 0.00 0.36 0.05 50 1010.6
20260507172115 20 292 0.0 4.8 0.00 0.36 0.05 51 1010.5
20260507171110 20 292 0.0 1.6 0.00 0.36 0.05 50 1010.7
20260507165058 20 0.0 0.0 0.00 0.36 0.05 51 1010.5
20260507164114 20 247 3.2 6.4 0.00 0.36 0.05 50 1010.4
20260507163051 21 315 1.6 3.2 0.00 0.36 0.05 50 1010.3
20260507162047 21 292 1.6 3.2 0.00 0.36 0.05 51 1010.3
20260507161043 20 292 4.8 6.4 0.00 0.36 0.05 48 1010.4
20260507160039 20 112 1.6 3.2 0.00 0.36 0.05 48 1010.4
20260507155037 21 315 0.0 3.2 0.00 0.36 0.05 48 1010.5
20260507154032 21 315 1.6 3.2 0.00 0.36 0.05 46 1010.3
20260507153028 20 67 0.0 1.6 0.00 0.36 0.05 47 1010.5
20260507152024 21 315 1.6 3.2 0.00 0.36 0.05 46 1010.6
20260507151021 21 315 1.6 3.2 0.00 0.36 0.05 46 1010.3
20260507150018 21 315 1.6 4.8 0.00 0.38 0.05 46 1010.6
20260507145014 21 292 1.6 3.2 0.00 0.38 0.05 49 1010.5
20260507144011 21 0.0 1.6 0.00 0.53 0.05 47 1010.6
20260507143010 21 0.0 1.6 0.00 0.58 0.05 46 1010.5
20260507142007 21 292 0.0 4.8 0.00 0.58 0.05 47 1010.8
20260507140957 20 0.0 0.0 0.00 0.58 0.05 49 1010.8
20260507135954 21 315 0.0 1.6 0.00 0.58 0.05 49 1010.9
20260507134952 21 292 0.0 3.2 0.00 0.58 0.05 51 1010.9
20260507133946 21 315 4.8 9.7 0.00 0.58 0.05 52 1011.0
20260507133103 21 315 0.0 1.6 0.00 0.58 0.05 53 1010.8
20260507131941 21 292 3.2 4.8 0.00 0.58 0.05 52 1011.0
20260507130938 21 0.0 1.6 0.00 0.58 0.05 52 1011.0
20260507125935 20 315 3.2 6.4 0.00 0.58 0.05 55 1011.4
20260507124932 21 135 4.8 6.4 0.00 0.58 0.05 51 1011.4
20260507123930 20 90 1.6 3.2 0.00 0.58 0.05 54 1011.4
20260507122924 20 292 1.6 3.2 0.00 0.58 0.05 55 1011.6
20260507121920 20 202 3.2 6.4 0.00 0.58 0.05 56 1011.4
20260507120937 20 292 1.6 3.2 0.00 0.58 0.05 56 1011.6
20260507115913 20 315 1.6 3.2 0.00 0.58 0.05 55 1011.3
20260507114909 21 292 1.6 3.2 0.00 0.58 0.05 56 1011.5
20260507113926 20 315 0.0 3.2 0.00 0.58 0.05 55 1011.7